Calgary Springbank,

7:26 AM MDT on July 27, 2017 (GMT -0600)
Calgary Springbank

Weather History for CYBW - May, 2013

Change the Weather History Date:

Monday, May 20, 2013

  Actual Average Record
Temperature  
Mean Temperature 48 °F -  
Max Temperature 67 °F 59 °F 71 °F (2008)
Min Temperature 29 °F 38 °F 22 °F (2012)
Degree Days  
Heating Degree Days 17    
Moisture  
Dew Point 40 °F    
Average Humidity 63    
Maximum Humidity 100    
Minimum Humidity 25    
Precipitation  
Precipitation 0.00 in - - ()
Sea Level Pressure  
Sea Level Pressure 30.24 in    
Wind  
Wind Speed 8 mph ()    
Max Wind Speed 17 mph    
Max Gust Speed 31 mph    
Visibility 19.0 miles    
Events Rain    
Averages and records for this station are not official NWS values.
T = Trace of Precipitation, MM = Missing Value Source: Averaged Metar Reports

Daily Weather History Graph

Daily Weather History Graph

Search for Another Location

Airport or City:

Trip Planner

Search our weather history database for the weather conditions in past years. The results will help you decide how hot, cold, wet, or windy it might be!

Date:

Astronomy

May. 20, 2013 Rise Set
Actual Time 5:39 AM MDT 9:28 PM MDT
Civil Twilight 4:57 AM MDT 10:11 PM MDT
Nautical Twilight 3:59 AM MDT 11:10 PM MDT
Astronomical Twilight 2:24 AM MDT 12:49 AM MDT
Moon 4:10 PM MDT (5/20) 3:11 AM MDT (5/20)
Length of Visible Light 17h 13m
Length of Day
15h 49m
Waxing Gibbous, 75% of the Moon is Illuminated
May 20
Waxing Gibbous
May 24
Full
May 31
Last Quarter
Jun 8
New
Jun 16
First Quarter

Hourly Weather History & Observations

Time (MDT) Temp. Windchill Dew Point Humidity Pressure Visibility Wind Dir Wind Speed Gust Speed Precip Events Conditions
5:00 AM 30.2 °F 23.4 °F 30.2 °F 100% 30.32 in 25.0 mi NW 6.9 mph - N/A   Scattered Clouds
6:00 AM 32 °F - 32 °F 100% 30.33 in 28 mi NNW 10.4 mph - -   Partly Cloudy
6:00 AM 32.0 °F 24.2 °F 32.0 °F 100% 30.32 in 30.0 mi NNW 9.2 mph - N/A   Scattered Clouds
7:00 AM 39.2 °F 32.5 °F 39.2 °F 100% 30.32 in 30.0 mi NNW 10.4 mph - N/A   Mostly Cloudy
8:00 AM 44.6 °F 38.8 °F 41.0 °F 87% 30.31 in 30.0 mi NW 11.5 mph - N/A   Scattered Clouds
9:00 AM 50.0 °F - 41.0 °F 71% 30.32 in 30.0 mi NW 11.5 mph - N/A   Mostly Cloudy
10:00 AM 53.6 °F - 41.0 °F 62% 30.34 in 30.0 mi NNW 10.4 mph - N/A   Overcast
11:00 AM 57.2 °F - 41.0 °F 55% 30.32 in 30.0 mi NNW 8.1 mph - N/A   Mostly Cloudy
12:00 PM 57 °F - 42 °F 45% 30.30 in 28 mi North 3.5 mph - -   Mostly Cloudy
12:00 PM 57.2 °F - 41.0 °F 55% 30.30 in 30.0 mi Calm Calm - N/A   Mostly Cloudy
1:00 PM 62.6 °F - 42.8 °F 48% 30.27 in 30.0 mi Calm Calm - N/A   Mostly Cloudy
2:00 PM 60.8 °F - 39.2 °F 45% 30.25 in 30.0 mi ESE 5.8 mph - N/A   Mostly Cloudy
3:00 PM 64.4 °F - 41.0 °F 42% 30.22 in 30.0 mi ENE 5.8 mph - N/A   Mostly Cloudy
4:00 PM 62.6 °F - 37.4 °F 39% 30.21 in 30.0 mi SSE 5.8 mph - N/A   Mostly Cloudy
5:00 PM 66.2 °F - 39.2 °F 37% 30.19 in 30.0 mi SSE 10.4 mph - N/A   Mostly Cloudy
6:00 PM 66 °F - 38 °F 25% 30.17 in 28 mi South 9.2 mph - -   Haze
6:00 PM 66.2 °F - 39.2 °F 37% 30.17 in 30.0 mi South 8.1 mph - N/A   Mostly Cloudy
6:51 PM 59.0 °F - 41.0 °F 51% 30.19 in 20.0 mi SSW 17.3 mph - N/A Rain Heavy Rain Showers
6:55 PM 57.2 °F - 39.2 °F 51% 30.20 in 20.0 mi South 15.0 mph 31.1 mph N/A Rain Light Rain Showers
7:00 PM 55.4 °F - 44.6 °F 67% 30.18 in 20.0 mi ENE 12.7 mph 31.1 mph N/A Rain Light Rain Showers
7:11 PM 57.2 °F - 46.4 °F 67% 30.18 in 30.0 mi ESE 13.8 mph - N/A   Mostly Cloudy
8:00 PM 59.0 °F - 42.8 °F 55% 30.14 in 30.0 mi South 3.5 mph - N/A   Mostly Cloudy
9:00 PM 51.8 °F - 44.6 °F 76% 30.15 in 30.0 mi South 15.0 mph - N/A   Overcast
9:33 PM 50.0 °F - 44.6 °F 82% 30.16 in 15.0 mi South 13.8 mph 21.9 mph N/A Rain Light Rain Showers
10:00 PM 51.8 °F - 44.6 °F 76% 30.15 in 20.0 mi South 9.2 mph - N/A Rain Light Rain Showers